AXY7743 KRDU-KEWR

Flight info

Callsign AXY7743
Flight time 1h 11m
Altitude 30000
Route OXFRD5 CARML QUART PHLBO4
Aircraft A346/H-SDE2E3FGHIJ3J4J5M1RWXY/LB1D1

Departure

Time 2026-05-06 21:52
Airport Raleigh-Durham International Airport (KRDU)

Arrival

Time 2026-05-06 23:04
Airport Newark Liberty International Airport (KEWR)
Time Latitude Longitude Altitude Speed Heading
2026-05-06 21:27 35.87371 -78.79906 431 ft 0 kts 136°
2026-05-06 21:38 35.87369 -78.79904 420 ft 0 kts 136°
2026-05-06 21:39 35.87367 -78.79901 420 ft 1 kts 136°
2026-05-06 21:39 35.87365 -78.79899 420 ft 0 kts 136°
2026-05-06 21:39 35.87386 -78.79933 421 ft 0 kts 131°
2026-05-06 21:39 35.87385 -78.79977 431 ft 0 kts 43°
2026-05-06 21:45 35.87321 -78.79901 416 ft 1 kts 27°
2026-05-06 21:45 35.87312 -78.79908 416 ft 0 kts 33°
2026-05-06 21:45 35.87317 -78.79904 416 ft 2 kts 25°
2026-05-06 21:46 35.87345 -78.79905 427 ft 13 kts 346°
2026-05-06 21:46 35.87376 -78.79916 432 ft 1 kts 346°
2026-05-06 21:46 35.87415 -78.79925 434 ft 13 kts 353°
2026-05-06 21:46 35.87514 -78.79903 428 ft 21 kts 28°
2026-05-06 21:47 35.87629 -78.79779 436 ft 22 kts 45°
2026-05-06 21:47 35.87742 -78.79641 426 ft 23 kts 44°
2026-05-06 21:47 35.87862 -78.79487 433 ft 26 kts 45°
2026-05-06 21:47 35.87924 -78.79411 426 ft 9 kts 44°
2026-05-06 21:48 35.87976 -78.79349 428 ft 13 kts 44°
2026-05-06 21:48 35.88048 -78.79260 426 ft 16 kts 45°
2026-05-06 21:48 35.88133 -78.79155 424 ft 19 kts 45°
2026-05-06 21:48 35.88238 -78.79026 428 ft 23 kts 45°
2026-05-06 21:49 35.88355 -78.78881 426 ft 25 kts 45°
2026-05-06 21:49 35.88481 -78.78725 429 ft 26 kts 45°
2026-05-06 21:49 35.88609 -78.78567 427 ft 27 kts 45°
2026-05-06 21:49 35.88742 -78.78403 426 ft 28 kts 45°
2026-05-06 21:50 35.88884 -78.78227 422 ft 30 kts 45°
2026-05-06 21:50 35.89007 -78.78074 426 ft 26 kts 45°
2026-05-06 21:50 35.89136 -78.77914 428 ft 26 kts 45°
2026-05-06 21:50 35.89241 -78.77785 420 ft 21 kts 44°
2026-05-06 21:51 35.89332 -78.77796 426 ft 11 kts 295°
2026-05-06 21:51 35.89326 -78.77875 425 ft 0 kts 224°
2026-05-06 21:51 35.89263 -78.77957 427 ft 48 kts 226°
2026-05-06 21:51 35.88818 -78.78506 429 ft 130 kts 225°
2026-05-06 21:52 35.88004 -78.79507 480 ft 192 kts 224°
2026-05-06 21:52 35.87037 -78.80707 1340 ft 199 kts 224°
2026-05-06 21:52 35.86069 -78.81916 2542 ft 192 kts 225°
2026-05-06 21:52 35.85162 -78.83045 3641 ft 178 kts 225°
2026-05-06 21:53 35.84295 -78.84115 4518 ft 179 kts 231°
2026-05-06 21:53 35.83701 -78.85515 4969 ft 197 kts 263°
2026-05-06 21:53 35.83952 -78.87250 5490 ft 221 kts 294°
2026-05-06 21:53 35.85044 -78.88714 6028 ft 253 kts 322°
2026-05-06 21:54 35.86800 -78.89387 6493 ft 282 kts 354°
2026-05-06 21:54 35.88779 -78.88775 7111 ft 302 kts 18°
2026-05-06 21:54 35.90690 -78.87671 8012 ft 304 kts 21°
2026-05-06 21:54 35.92595 -78.86497 8952 ft 306 kts 21°
2026-05-06 21:55 35.94501 -78.85326 9862 ft 307 kts 20°
2026-05-06 21:55 35.96436 -78.84159 10652 ft 310 kts 19°
2026-05-06 21:55 35.98397 -78.82997 11386 ft 314 kts 19°
2026-05-06 21:55 36.00386 -78.81834 11833 ft 316 kts 19°
2026-05-06 21:56 36.02380 -78.80667 12006 ft 318 kts 19°
2026-05-06 21:56 36.04376 -78.79498 12002 ft 317 kts 19°
2026-05-06 21:56 36.06346 -78.78346 12003 ft 317 kts 19°
2026-05-06 21:56 36.08363 -78.77169 12130 ft 325 kts 19°
2026-05-06 21:57 36.10418 -78.75967 12924 ft 326 kts 19°
2026-05-06 21:57 36.12463 -78.74763 13861 ft 324 kts 19°
2026-05-06 21:57 36.14507 -78.73561 14611 ft 326 kts 18°
2026-05-06 21:57 36.16567 -78.72355 15332 ft 329 kts 18°
2026-05-06 21:58 36.18642 -78.71141 16053 ft 331 kts 17°
2026-05-06 21:58 36.20732 -78.69917 16798 ft 333 kts 17°
2026-05-06 21:58 36.22839 -78.68679 17542 ft 337 kts 16°
2026-05-06 21:58 36.24940 -78.67455 18228 ft 340 kts 15°
2026-05-06 21:59 36.27086 -78.66206 18878 ft 341 kts 16°
2026-05-06 21:59 36.29239 -78.64950 19488 ft 344 kts 16°
2026-05-06 21:59 36.31417 -78.63675 20077 ft 348 kts 17°
2026-05-06 21:59 36.33626 -78.62384 20656 ft 352 kts 16°
2026-05-06 22:00 36.35887 -78.61220 21254 ft 352 kts 12°
2026-05-06 22:00 36.38207 -78.60256 21851 ft 352 kts
2026-05-06 22:00 36.40573 -78.59400 22444 ft 356 kts
2026-05-06 22:00 36.42967 -78.58553 23027 ft 360 kts
2026-05-06 22:01 36.45392 -78.57691 23608 ft 364 kts
2026-05-06 22:01 36.47841 -78.56813 24071 ft 369 kts
2026-05-06 22:01 36.50326 -78.55925 24563 ft 373 kts
2026-05-06 22:01 36.52826 -78.55030 25052 ft 376 kts
2026-05-06 22:02 36.55353 -78.54124 25554 ft 379 kts
2026-05-06 22:02 36.57905 -78.53208 26042 ft 383 kts
2026-05-06 22:02 36.60476 -78.52285 26539 ft 386 kts
2026-05-06 22:02 36.63069 -78.51353 26904 ft 390 kts
2026-05-06 22:03 36.65686 -78.50411 26969 ft 391 kts
2026-05-06 22:03 36.68295 -78.49470 27007 ft 391 kts
2026-05-06 22:03 36.70875 -78.48532 26993 ft 392 kts
2026-05-06 22:03 36.73479 -78.47441 26986 ft 398 kts 13°
2026-05-06 22:04 36.76020 -78.45978 26980 ft 405 kts 20°
2026-05-06 22:04 36.78466 -78.44163 26990 ft 410 kts 24°
2026-05-06 22:04 36.80863 -78.42224 26986 ft 411 kts 25°
2026-05-06 22:04 36.83250 -78.40262 26985 ft 411 kts 25°
2026-05-06 22:05 36.85642 -78.38296 26987 ft 411 kts 25°
2026-05-06 22:05 36.88032 -78.36340 26977 ft 411 kts 25°
2026-05-06 22:05 36.90434 -78.34379 27000 ft 414 kts 25°
2026-05-06 22:05 36.92904 -78.32373 26988 ft 432 kts 25°
2026-05-06 22:06 36.95476 -78.30290 26984 ft 448 kts 25°
2026-05-06 22:06 36.98116 -78.28145 26960 ft 455 kts 25°
2026-05-06 22:06 37.00780 -78.25968 26953 ft 456 kts 25°
2026-05-06 22:06 37.03443 -78.23788 26954 ft 457 kts 25°
2026-05-06 22:07 37.06107 -78.21606 26957 ft 457 kts 25°
2026-05-06 22:07 37.08730 -78.19457 26958 ft 457 kts 25°
2026-05-06 22:07 37.11394 -78.17275 26973 ft 457 kts 25°
2026-05-06 22:07 37.14057 -78.15092 26973 ft 459 kts 25°
2026-05-06 22:08 37.16735 -78.12896 26966 ft 461 kts 25°
2026-05-06 22:08 37.19420 -78.10695 26963 ft 461 kts 25°
2026-05-06 22:08 37.22105 -78.08491 26959 ft 461 kts 25°
2026-05-06 22:08 37.24794 -78.06281 26961 ft 461 kts 25°
2026-05-06 22:09 37.27481 -78.04070 26949 ft 461 kts 25°
2026-05-06 22:09 37.30168 -78.01859 26944 ft 461 kts 25°
2026-05-06 22:09 37.32851 -77.99639 26941 ft 463 kts 26°
2026-05-06 22:09 37.35433 -77.97165 26959 ft 470 kts 33°
2026-05-06 22:10 37.37833 -77.94300 26949 ft 478 kts 41°
2026-05-06 22:10 37.40002 -77.91124 26953 ft 480 kts 45°
2026-05-06 22:10 37.42075 -77.87821 26953 ft 480 kts 46°
2026-05-06 22:10 37.44129 -77.84496 26953 ft 480 kts 46°
2026-05-06 22:11 37.46190 -77.81194 26960 ft 480 kts 46°
2026-05-06 22:11 37.48275 -77.77894 26963 ft 480 kts 46°
2026-05-06 22:11 37.50380 -77.74641 26959 ft 478 kts 43°
2026-05-06 22:11 37.52692 -77.71665 26960 ft 472 kts 35°
2026-05-06 22:12 37.55236 -77.69079 27001 ft 466 kts 27°
2026-05-06 22:12 37.57900 -77.66835 26973 ft 467 kts 23°
2026-05-06 22:12 37.60659 -77.64666 26962 ft 467 kts 22°
2026-05-06 22:12 37.63426 -77.62504 26956 ft 468 kts 22°
2026-05-06 22:13 37.66185 -77.60318 26957 ft 468 kts 23°
2026-05-06 22:13 37.68934 -77.58116 26943 ft 468 kts 24°
2026-05-06 22:13 37.71679 -77.55892 26949 ft 467 kts 25°
2026-05-06 22:13 37.74406 -77.53666 26953 ft 467 kts 25°
2026-05-06 22:14 37.77142 -77.51435 26954 ft 467 kts 25°
2026-05-06 22:14 37.79890 -77.49198 26955 ft 467 kts 25°
2026-05-06 22:14 37.82631 -77.46968 26958 ft 473 kts 25°
2026-05-06 22:14 37.85432 -77.44696 26954 ft 479 kts 25°
2026-05-06 22:15 37.88237 -77.42410 26950 ft 480 kts 25°
2026-05-06 22:15 37.91052 -77.40110 26950 ft 481 kts 25°
2026-05-06 22:15 37.93831 -77.37838 26948 ft 481 kts 25°
2026-05-06 22:15 37.96642 -77.35539 26952 ft 481 kts 25°
2026-05-06 22:16 37.99461 -77.33221 26948 ft 484 kts 24°
2026-05-06 22:16 38.02279 -77.30732 26938 ft 489 kts 28°
2026-05-06 22:16 38.04998 -77.28128 26932 ft 491 kts 29°
2026-05-06 22:16 38.07709 -77.25483 26927 ft 492 kts 29°
2026-05-06 22:17 38.10425 -77.22836 26913 ft 492 kts 29°
2026-05-06 22:17 38.13148 -77.20207 26919 ft 489 kts 30°
2026-05-06 22:17 38.15854 -77.17599 26920 ft 488 kts 29°
2026-05-06 22:17 38.18563 -77.14990 26958 ft 487 kts 29°
2026-05-06 22:18 38.21300 -77.12348 26939 ft 490 kts 28°
2026-05-06 22:18 38.24033 -77.09732 26935 ft 492 kts 27°
2026-05-06 22:18 38.26773 -77.07115 26929 ft 492 kts 27°
2026-05-06 22:18 38.29510 -77.04495 26929 ft 492 kts 28°
2026-05-06 22:19 38.32246 -77.01870 26923 ft 492 kts 28°
2026-05-06 22:19 38.34939 -76.99281 26922 ft 492 kts 28°
2026-05-06 22:19 38.37674 -76.96647 26921 ft 492 kts 28°
2026-05-06 22:19 38.40406 -76.94010 26955 ft 493 kts 27°
2026-05-06 22:20 38.43145 -76.91361 26935 ft 494 kts 27°
2026-05-06 22:20 38.45885 -76.88714 26930 ft 494 kts 27°
2026-05-06 22:20 38.48624 -76.86065 26912 ft 494 kts 27°
2026-05-06 22:20 38.51364 -76.83412 26920 ft 494 kts 27°
2026-05-06 22:21 38.54102 -76.80758 26925 ft 494 kts 28°
2026-05-06 22:21 38.56837 -76.78104 26924 ft 494 kts 28°
2026-05-06 22:21 38.58656 -76.76337 26924 ft 494 kts 28°
2026-05-06 22:21 38.61394 -76.73675 26952 ft 494 kts 28°
2026-05-06 22:22 38.64129 -76.71013 26918 ft 493 kts 28°
2026-05-06 22:22 38.66859 -76.68354 26922 ft 493 kts 28°
2026-05-06 22:22 38.69594 -76.65688 26908 ft 493 kts 28°
2026-05-06 22:22 38.72305 -76.63038 26912 ft 485 kts 28°
2026-05-06 22:23 38.74951 -76.60438 26909 ft 471 kts 27°
2026-05-06 22:23 38.77508 -76.57920 26909 ft 456 kts 27°
2026-05-06 22:23 38.79983 -76.55487 26935 ft 442 kts 27°
2026-05-06 22:23 38.82402 -76.53113 26928 ft 435 kts 26°
2026-05-06 22:24 38.84814 -76.50759 26927 ft 434 kts 26°
2026-05-06 22:24 38.87219 -76.48415 26916 ft 434 kts 26°
2026-05-06 22:24 38.89623 -76.46066 26913 ft 435 kts 26°
2026-05-06 22:24 38.92033 -76.43702 26913 ft 435 kts 26°
2026-05-06 22:25 38.94434 -76.41341 26911 ft 435 kts 26°
2026-05-06 22:25 38.96840 -76.38972 26910 ft 435 kts 27°
2026-05-06 22:25 38.99240 -76.36607 26915 ft 435 kts 27°
2026-05-06 22:25 39.01647 -76.34229 26960 ft 435 kts 26°
2026-05-06 22:26 39.04007 -76.31894 26936 ft 433 kts 26°
2026-05-06 22:26 39.06431 -76.29499 26919 ft 433 kts 26°
2026-05-06 22:26 39.08771 -76.27182 26569 ft 427 kts 26°
2026-05-06 22:26 39.11123 -76.24853 25770 ft 426 kts 26°
2026-05-06 22:27 39.13488 -76.22520 24907 ft 429 kts 26°
2026-05-06 22:27 39.15848 -76.20180 24270 ft 424 kts 27°
2026-05-06 22:27 39.18164 -76.17874 23701 ft 418 kts 27°
2026-05-06 22:27 39.20450 -76.15598 23044 ft 413 kts 27°
2026-05-06 22:28 39.22720 -76.13345 22294 ft 409 kts 27°
2026-05-06 22:28 39.24961 -76.11119 21671 ft 403 kts 28°
2026-05-06 22:28 39.27120 -76.08869 21169 ft 396 kts 32°
2026-05-06 22:28 39.29162 -76.06522 20623 ft 390 kts 33°
2026-05-06 22:29 39.31153 -76.04174 20152 ft 384 kts 34°
2026-05-06 22:29 39.33121 -76.01844 20013 ft 384 kts 34°
2026-05-06 22:29 39.35096 -75.99509 20038 ft 385 kts 34°
2026-05-06 22:29 39.37070 -75.97175 20016 ft 384 kts 34°
2026-05-06 22:30 39.39050 -75.94836 20009 ft 384 kts 34°
2026-05-06 22:30 39.41023 -75.92503 20026 ft 385 kts 34°
2026-05-06 22:30 39.43007 -75.90160 20013 ft 386 kts 34°
2026-05-06 22:30 39.44993 -75.87814 20013 ft 386 kts 34°
2026-05-06 22:31 39.46977 -75.85468 19991 ft 386 kts 34°
2026-05-06 22:31 39.48959 -75.83122 19993 ft 386 kts 34°
2026-05-06 22:31 39.50920 -75.80798 19994 ft 386 kts 34°
2026-05-06 22:31 39.52903 -75.78448 19990 ft 386 kts 34°
2026-05-06 22:32 39.54881 -75.76103 19974 ft 384 kts 34°
2026-05-06 22:32 39.56842 -75.73770 19511 ft 377 kts 34°
2026-05-06 22:32 39.58774 -75.71477 18885 ft 374 kts 35°
2026-05-06 22:32 39.60682 -75.69210 18328 ft 370 kts 36°
2026-05-06 22:33 39.62568 -75.66964 17720 ft 365 kts 36°
2026-05-06 22:33 39.64425 -75.64747 17070 ft 361 kts 36°
2026-05-06 22:33 39.66267 -75.62547 16414 ft 358 kts 36°
2026-05-06 22:33 39.68099 -75.60359 15765 ft 356 kts 36°
2026-05-06 22:34 39.69914 -75.58183 15144 ft 354 kts 36°
2026-05-06 22:34 39.71713 -75.56020 14522 ft 351 kts 37°
2026-05-06 22:34 39.73515 -75.53849 13918 ft 349 kts 37°
2026-05-06 22:34 39.75289 -75.51710 13325 ft 346 kts 37°
2026-05-06 22:35 39.77058 -75.49578 13132 ft 346 kts 37°
2026-05-06 22:35 39.78829 -75.47443 13107 ft 348 kts 37°
2026-05-06 22:35 39.80604 -75.45298 13077 ft 348 kts 37°
2026-05-06 22:35 39.82376 -75.43154 13045 ft 347 kts 37°
2026-05-06 22:36 39.84140 -75.41018 12856 ft 343 kts 37°
2026-05-06 22:36 39.85881 -75.38913 12217 ft 341 kts 37°
2026-05-06 22:36 39.87594 -75.36842 11568 ft 339 kts 38°
2026-05-06 22:36 39.89309 -75.34768 10965 ft 335 kts 38°
2026-05-06 22:37 39.91012 -75.32704 10390 ft 331 kts 39°
2026-05-06 22:37 39.92689 -75.30664 10160 ft 331 kts 39°
2026-05-06 22:37 39.94381 -75.28605 10019 ft 332 kts 39°
2026-05-06 22:37 39.96066 -75.26557 10011 ft 332 kts 39°
2026-05-06 22:38 39.97753 -75.24499 10013 ft 331 kts 38°
2026-05-06 22:38 39.99436 -75.22448 9994 ft 331 kts 38°
2026-05-06 22:38 40.01121 -75.20395 9993 ft 331 kts 38°
2026-05-06 22:38 40.02809 -75.18341 9995 ft 331 kts 38°
2026-05-06 22:39 40.04494 -75.16291 10002 ft 330 kts 38°
2026-05-06 22:39 40.06175 -75.14239 10002 ft 330 kts 38°
2026-05-06 22:39 40.07849 -75.12193 9944 ft 327 kts 38°
2026-05-06 22:39 40.09486 -75.10190 9376 ft 324 kts 38°
2026-05-06 22:40 40.11152 -75.08156 8745 ft 321 kts 39°
2026-05-06 22:40 40.12753 -75.06194 8228 ft 315 kts 38°
2026-05-06 22:40 40.14347 -75.04238 8096 ft 314 kts 38°
2026-05-06 22:40 40.15941 -75.02290 8021 ft 312 kts 39°
2026-05-06 22:41 40.18988 -74.98543 7961 ft 290 kts 39°
2026-05-06 22:41 40.20462 -74.96731 7982 ft 291 kts 39°
2026-05-06 22:41 40.21935 -74.94922 7945 ft 288 kts 38°
2026-05-06 22:42 40.23388 -74.93138 7694 ft 284 kts 39°
2026-05-06 22:42 40.24814 -74.91383 7526 ft 278 kts 39°
2026-05-06 22:42 40.26167 -74.89597 7288 ft 275 kts 42°
2026-05-06 22:42 40.27473 -74.87776 7027 ft 273 kts 43°
2026-05-06 22:43 40.28764 -74.85961 6771 ft 271 kts 43°
2026-05-06 22:43 40.30024 -74.84185 6511 ft 269 kts 43°
2026-05-06 22:43 40.31293 -74.82394 6233 ft 266 kts 44°
2026-05-06 22:43 40.32571 -74.80603 6003 ft 262 kts 44°
2026-05-06 22:44 40.33808 -74.78859 5720 ft 262 kts 43°
2026-05-06 22:44 40.35040 -74.77126 5346 ft 265 kts 43°
2026-05-06 22:44 40.36294 -74.75357 5071 ft 263 kts 43°
2026-05-06 22:44 40.37535 -74.73610 5004 ft 262 kts 43°
2026-05-06 22:45 40.38767 -74.71873 4859 ft 259 kts 43°
2026-05-06 22:45 40.40001 -74.70138 4515 ft 261 kts 43°
2026-05-06 22:45 40.41242 -74.68404 4229 ft 258 kts 39°
2026-05-06 22:45 40.42649 -74.67027 3838 ft 249 kts 21°
2026-05-06 22:46 40.44263 -74.66277 3340 ft 244 kts
2026-05-06 22:46 40.45908 -74.65844 3101 ft 238 kts
2026-05-06 22:46 40.47512 -74.65463 3000 ft 227 kts
2026-05-06 22:46 40.49016 -74.65087 2969 ft 213 kts
2026-05-06 22:47 40.50458 -74.64724 2977 ft 210 kts
2026-05-06 22:47 40.51885 -74.64359 2974 ft 205 kts
2026-05-06 22:47 40.53253 -74.63996 2983 ft 201 kts
2026-05-06 22:47 40.54638 -74.63627 2980 ft 200 kts
2026-05-06 22:48 40.55980 -74.63276 2975 ft 197 kts
2026-05-06 22:48 40.57315 -74.62921 2980 ft 195 kts
2026-05-06 22:48 40.58641 -74.62563 2979 ft 194 kts
2026-05-06 22:48 40.59966 -74.62209 2979 ft 194 kts
2026-05-06 22:49 40.61286 -74.61860 2980 ft 193 kts
2026-05-06 22:49 40.62606 -74.61503 2987 ft 194 kts
2026-05-06 22:49 40.63926 -74.61149 2976 ft 193 kts
2026-05-06 22:49 40.65246 -74.60799 2987 ft 192 kts
2026-05-06 22:50 40.66557 -74.60447 2987 ft 192 kts
2026-05-06 22:50 40.67860 -74.60100 2985 ft 193 kts
2026-05-06 22:50 40.69171 -74.59744 2987 ft 192 kts
2026-05-06 22:50 40.70491 -74.59390 2979 ft 194 kts
2026-05-06 22:51 40.71814 -74.59036 2976 ft 194 kts
2026-05-06 22:51 40.73135 -74.58680 2983 ft 193 kts
2026-05-06 22:51 40.74442 -74.58324 3008 ft 191 kts
2026-05-06 22:51 40.75748 -74.57974 2984 ft 191 kts
2026-05-06 22:52 40.77050 -74.57626 2983 ft 191 kts
2026-05-06 22:52 40.78348 -74.57270 3000 ft 190 kts
2026-05-06 22:52 40.79651 -74.56919 3006 ft 191 kts
2026-05-06 22:52 40.80954 -74.56575 3002 ft 191 kts
2026-05-06 22:53 40.82236 -74.56225 2987 ft 191 kts
2026-05-06 22:53 40.83555 -74.55858 3007 ft 195 kts
2026-05-06 22:53 40.84885 -74.55469 3024 ft 196 kts
2026-05-06 22:53 40.86215 -74.55071 2987 ft 196 kts
2026-05-06 22:54 40.87542 -74.54653 2999 ft 198 kts 11°
2026-05-06 22:54 40.88665 -74.53570 2981 ft 210 kts 58°
2026-05-06 22:54 40.88897 -74.51698 2984 ft 206 kts 103°
2026-05-06 22:54 40.88455 -74.49947 2757 ft 199 kts 117°
2026-05-06 22:55 40.87890 -74.48279 2466 ft 199 kts 118°
2026-05-06 22:55 40.87356 -74.46596 2217 ft 197 kts 116°
2026-05-06 22:55 40.86869 -74.44909 2009 ft 194 kts 114°
2026-05-06 22:55 40.86431 -74.43238 1970 ft 188 kts 112°
2026-05-06 22:56 40.86031 -74.41615 1967 ft 184 kts 111°
2026-05-06 22:56 40.85651 -74.40017 1976 ft 184 kts 111°
2026-05-06 22:56 40.85271 -74.38396 1992 ft 185 kts 111°
2026-05-06 22:56 40.84901 -74.36798 1971 ft 179 kts 111°
2026-05-06 22:57 40.84538 -74.35229 1961 ft 177 kts 112°
2026-05-06 22:57 40.84175 -74.33663 1955 ft 178 kts 112°
2026-05-06 22:57 40.83808 -74.32095 1972 ft 179 kts 112°
2026-05-06 22:57 40.83441 -74.30519 1972 ft 179 kts 112°
2026-05-06 22:58 40.83078 -74.28943 1976 ft 179 kts 113°
2026-05-06 22:58 40.82712 -74.27371 1981 ft 178 kts 113°
2026-05-06 22:58 40.82347 -74.25815 1975 ft 177 kts 112°
2026-05-06 22:58 40.81984 -74.24266 1960 ft 177 kts 112°
2026-05-06 22:59 40.81621 -74.22704 1900 ft 177 kts 112°
2026-05-06 22:59 40.81268 -74.21173 1820 ft 176 kts 113°
2026-05-06 22:59 40.80906 -74.19623 1779 ft 175 kts 112°
2026-05-06 22:59 40.80550 -74.18101 1705 ft 172 kts 112°
2026-05-06 23:00 40.80197 -74.16588 1610 ft 170 kts 112°
2026-05-06 23:00 40.79847 -74.15099 1509 ft 169 kts 112°
2026-05-06 23:00 40.79502 -74.13621 1465 ft 168 kts 112°
2026-05-06 23:00 40.78997 -74.12273 1471 ft 160 kts 143°
2026-05-06 23:01 40.78042 -74.11726 1503 ft 148 kts 186°
2026-05-06 23:01 40.77058 -74.11980 1484 ft 141 kts 204°
2026-05-06 23:01 40.76155 -74.12457 1439 ft 139 kts 208°
2026-05-06 23:01 40.75270 -74.13004 1240 ft 142 kts 211°
2026-05-06 23:02 40.74388 -74.13602 1022 ft 143 kts 211°
2026-05-06 23:02 40.73502 -74.14165 815 ft 140 kts 208°
2026-05-06 23:02 40.72637 -74.14687 594 ft 138 kts 208°
2026-05-06 23:02 40.71752 -74.15265 411 ft 141 kts 207°
2026-05-06 23:03 40.70898 -74.15814 229 ft 137 kts 207°
2026-05-06 23:03 40.70022 -74.16369 81 ft 139 kts 206°
2026-05-06 23:03 40.69150 -74.16911 43 ft 142 kts 208°
2026-05-06 23:03 40.68424 -74.17385 32 ft 73 kts 205°
2026-05-06 23:04 40.68132 -74.17569 28 ft 31 kts 205°
2026-05-06 23:04 40.68029 -74.17727 28 ft 12 kts 284°
2026-05-06 23:04 40.68043 -74.17781 28 ft 1 kts 294°
2026-05-06 23:04 40.68050 -74.17803 28 ft 4 kts 294°
2026-05-06 23:05 40.68068 -74.17853 28 ft 8 kts 294°
2026-05-06 23:05 40.68103 -74.17920 29 ft 10 kts 319°
2026-05-06 23:05 40.68137 -74.17975 30 ft 3 kts 279°
2026-05-06 23:05 40.68136 -74.18009 30 ft 5 kts 253°
2026-05-06 23:06 40.68113 -74.18049 31 ft 6 kts 218°
2026-05-06 23:06 40.68072 -74.18076 32 ft 8 kts 204°
2026-05-06 23:06 40.68029 -74.18102 32 ft 8 kts 205°
2026-05-06 23:06 40.67969 -74.18140 32 ft 12 kts 206°
2026-05-06 23:07 40.67886 -74.18192 32 ft 15 kts 206°
2026-05-06 23:07 40.67787 -74.18256 33 ft 13 kts 206°
2026-05-06 23:07 40.67749 -74.18272 32 ft 1 kts 193°
2026-05-06 23:07 40.67730 -74.18278 32 ft 4 kts 195°
2026-05-06 23:08 40.67702 -74.18294 32 ft 0 kts 206°
2026-05-06 23:08 40.67692 -74.18301 32 ft 3 kts 206°
2026-05-06 23:08 40.67678 -74.18309 31 ft 1 kts 205°
2026-05-06 23:08 40.67675 -74.18311 31 ft 0 kts 206°